Trenton, NJ

8:52 PM EDT on May 23, 2017 (GMT -0400)
Trenton Mercer

Weather History for KTTN - August, 2012

Change the Weather History Date:

Saturday, August 4, 2012

  Actual Average Record
Temperature  
Mean Temperature 80 °F 75 °F  
Max Temperature 88 °F 85 °F 97 °F (1944)
Min Temperature 71 °F 66 °F 52 °F (1912)
Degree Days  
Heating Degree Days 0 0  
Month to date heating degree days 0 0  
Since 1 June heating degree days 22 24  
Since 1 July heating degree days 0 0  
Cooling Degree Days 15 10  
Month to date cooling degree days 55 41  
Year to date cooling degree days 838 618  
Since 1 June cooling degree days 682 561  
Growing Degree Days 29 (Base 50)    
Moisture  
Dew Point 71 °F    
Average Humidity 76    
Maximum Humidity 100    
Minimum Humidity 51    
Precipitation  
Precipitation 0.00 in 0.14 in 2.24 in (1915)
Month to date precipitation 0.22 0.59  
Year to date precipitation 21.26 27.47  
Snow  
Snow 0.00 in - - ()
Snow Depth 999.00 in    
Sea Level Pressure  
Sea Level Pressure 30.15 in    
Wind  
Wind Speed 5 mph (South)    
Max Wind Speed 18 mph    
Max Gust Speed 25 mph    
Visibility 7 miles    
Events Fog    
T = Trace of Precipitation, MM = Missing Value Source: NWS Daily Summary

Daily Weather History Graph

Daily Weather History Graph

Search for Another Location

Airport or City:

Trip Planner

Search our weather history database for the weather conditions in past years. The results will help you decide how hot, cold, wet, or windy it might be!

Date:

Astronomy

Aug. 04, 2012 Rise Set
Actual Time 6:00 AM EDT 8:09 PM EDT
Civil Twilight 5:30 AM EDT 8:39 PM EDT
Nautical Twilight 4:53 AM EDT 9:16 PM EDT
Astronomical Twilight 4:12 AM EDT 9:56 PM EDT
Moon 9:16 PM EDT (8/4) 8:45 AM EDT (8/4)
Length of Visible Light 15h 09m
Length of Day
14h 09m
Waning Gibbous, 92% of the Moon is Illuminated
Aug 4
Waning Gibbous
Aug 9
Last Quarter
Aug 17
New
Aug 24
First Quarter
Aug 31
Full

Hourly Weather History & Observations

Time (EDT) Temp. Heat Index Dew Point Humidity Pressure Visibility Wind Dir Wind Speed Gust Speed Precip Events Conditions
12:53 AM 73.9 °F - 71.1 °F 91% 30.08 in 8.0 mi Calm Calm - N/A   Clear
1:53 AM 73.9 °F - 71.1 °F 91% 30.09 in 7.0 mi Calm Calm - N/A   Clear
2:53 AM 73.9 °F - 70.0 °F 87% 30.09 in 7.0 mi Calm Calm - N/A   Clear
3:53 AM 73.0 °F - 69.1 °F 87% 30.10 in 8.0 mi Calm Calm - N/A   Clear
4:53 AM 72.0 °F - 69.1 °F 91% 30.12 in 7.0 mi Calm Calm - N/A   Clear
5:27 AM 71.6 °F - 68.0 °F 88% 30.14 in 7.0 mi NNE 3.5 mph - N/A   Partly Cloudy
5:53 AM 72.0 °F - 69.1 °F 91% 30.13 in 7.0 mi Calm Calm - 0.01 in   Scattered Clouds
6:04 AM 71.6 °F - 69.8 °F 94% 30.15 in 6.0 mi Calm Calm - N/A   Mostly Cloudy
6:53 AM 73.0 °F - 70.0 °F 90% 30.14 in 5.0 mi Calm Calm - N/A   Overcast
7:01 AM 73.4 °F - 71.6 °F 94% 30.17 in 1.8 mi Calm Calm - N/A   Overcast
7:53 AM 73.9 °F - 73.0 °F 97% 30.15 in 0.2 mi South 3.5 mph - N/A Fog Fog
8:10 AM 75.2 °F - 73.4 °F 94% 30.18 in 1.5 mi South 3.5 mph - N/A   Overcast
8:24 AM 75.2 °F - 73.4 °F 94% 30.19 in 2.5 mi SSW 3.5 mph - N/A   Overcast
8:53 AM 75.0 °F - 73.9 °F 96% 30.17 in 3.0 mi SW 5.8 mph - N/A   Overcast
9:46 AM 75.2 °F - 73.4 °F 94% 30.19 in 4.0 mi Variable 5.8 mph - N/A   Overcast
9:53 AM 75.9 °F - 73.0 °F 91% 30.17 in 4.0 mi Variable 4.6 mph - N/A   Overcast
10:53 AM 77.0 °F - 73.9 °F 90% 30.18 in 5.0 mi SSW 3.5 mph - N/A   Overcast
11:53 AM 80.1 °F 84.5 °F 73.9 °F 81% 30.18 in 6.0 mi SSW 5.8 mph - N/A   Haze
12:37 PM 82.4 °F 89.5 °F 75.2 °F 79% 30.20 in 7.0 mi South 8.1 mph - N/A   Partly Cloudy
12:53 PM 82.9 °F 89.4 °F 73.9 °F 74% 30.17 in 7.0 mi SE 4.6 mph - N/A   Partly Cloudy
1:53 PM 87.1 °F 92.8 °F 71.1 °F 59% 30.15 in 10.0 mi SSW 9.2 mph - N/A   Clear
2:53 PM 79.0 °F - 66.0 °F 64% 30.14 in 10.0 mi WSW 6.9 mph - N/A   Partly Cloudy
3:53 PM 86.0 °F 88.2 °F 66.0 °F 51% 30.14 in 10.0 mi SSE 5.8 mph - 0.00 in   Clear
4:53 PM 87.1 °F 93.6 °F 72.0 °F 61% 30.13 in 10.0 mi South 11.5 mph - N/A   Clear
5:53 PM 86.0 °F 92.2 °F 72.0 °F 63% 30.11 in 10.0 mi South 6.9 mph - N/A   Clear
6:53 PM 84.9 °F 90.7 °F 72.0 °F 65% 30.12 in 10.0 mi South 9.2 mph - N/A   Clear
7:53 PM 82.9 °F 88.0 °F 72.0 °F 69% 30.11 in 10.0 mi South 8.1 mph - N/A   Clear
8:53 PM 81.0 °F 84.9 °F 71.1 °F 72% 30.14 in 10.0 mi South 6.9 mph - N/A   Clear
9:53 PM 79.0 °F - 72.0 °F 79% 30.16 in 10.0 mi South 6.9 mph - N/A   Clear
10:53 PM 78.1 °F - 72.0 °F 81% 30.17 in 10.0 mi SSW 6.9 mph - N/A   Clear
11:53 PM 77.0 °F - 73.0 °F 88% 30.16 in 9.0 mi SSW 6.9 mph - N/A   Clear